sat.trackr.live / text

‹ back to catalog

CENTISPACE-2 S5

NORAD 68354 · 2026-060E

PAYLOAD ACTIVE UNKNOWN

§ Identity

Operator
Country
PRC
Launch date
2026-03-22
Launch site
YSLA
Launch vehicle
Mass (kg)
RCS (m²)

External: N2YO · Heavens-Above · Gunter

§ Orbital elements

Epoch: 2026-05-25T08:46:36.420384Z

Period
97.74 min
Inclination
54.9757°
Eccentricity
0.0013021
Mean motion
14.73290319 rev/d
Perigee alt
641.4 km
Apogee alt
659.7 km
Semi-major
7,028.7 km
B*
6.4185e-5
RAAN
128.9918°
Arg perigee
93.4459°
Mean anomaly
266.8029°
Rev number
940

§ Raw data

CENTISPACE-2 S51 68354U 26060E   26145.36569931  .00000212  00000+0  64185-4 0  99922 68354  54.9757 128.9918 0013021  93.4459 266.8029 14.73290319  9409

JSON: /api/v1/satellites/68354 · /tle

For live sub-satellite position, see the globe view (requires WebGL).

§ Visibility from observer

Set your observer location to see the next 7 days of passes ≥ 10°. The values pass through the URL so the page stays shareable.

No JS? Fill the form by hand. The geolocation button needs JavaScript.